Time,TemperatureF,DewpointF,PressureIn,WindDirection,WindDirectionDegrees,WindSpeedMPH,WindSpeedGustMPH,Humidity,HourlyPrecipIn,Conditions,Clouds,dailyrainin,SoftwareType,DateUTC
2013-03-03 00:02:00,38.0,-99.9,30.21,NNW,341,13.0,19.0,-999,-99.99,,,-99.99,,2013-03-03 06:02:00,
2013-03-03 00:11:00,38.0,-99.9,30.21,North,-999,-999.0,-999.0,-999,-99.99,,,-99.99,,2013-03-03 06:11:00,
2013-03-03 00:22:00,38.0,-99.9,30.20,NNW,337,13.0,17.0,-999,-99.99,,,-99.99,,2013-03-03 06:22:00,
2013-03-03 00:32:00,38.0,-99.9,30.20,NNW,336,15.0,19.0,-999,-99.99,,,-99.99,,2013-03-03 06:32:00,
2013-03-03 00:42:00,38.0,-99.9,30.20,NNW,340,13.0,17.0,-999,-99.99,,,-99.99,,2013-03-03 06:42:00,
2013-03-03 00:52:00,38.0,-99.9,30.21,NW,324,13.0,16.0,-999,-99.99,,,-99.99,,2013-03-03 06:52:00,
2013-03-03 01:01:00,38.0,-99.9,30.21,NW,323,14.0,16.0,-999,-99.99,,,-99.99,,2013-03-03 07:01:00,
2013-03-03 01:11:00,38.0,-99.9,30.21,North,-999,-999.0,-999.0,-999,-99.99,,,-99.99,,2013-03-03 07:11:00,
2013-03-03 01:22:00,37.0,-99.9,30.21,NW,319,13.0,15.0,-999,-99.99,,,-99.99,,2013-03-03 07:22:00,
2013-03-03 01:32:00,37.0,-99.9,30.21,NW,321,10.0,14.0,-999,-99.99,,,-99.99,,2013-03-03 07:32:00,
2013-03-03 01:42:00,37.0,-99.9,30.21,NW,324,11.0,15.0,-999,-99.99,,,-99.99,,2013-03-03 07:42:00,
2013-03-03 01:52:00,36.0,-99.9,30.21,North,-999,-999.0,-999.0,-999,-99.99,,,-99.99,,2013-03-03 07:52:00,
2013-03-03 02:01:00,36.0,-99.9,30.21,NW,317,7.0,9.0,-999,-99.99,,,-99.99,,2013-03-03 08:01:00,
2013-03-03 02:11:00,36.0,-99.9,30.20,NW,316,8.0,11.0,-999,-99.99,,,-99.99,,2013-03-03 08:11:00,
2013-03-03 02:21:00,35.0,-99.9,30.20,North,-999,-999.0,-999.0,-999,-99.99,,,-99.99,,2013-03-03 08:21:00,
2013-03-03 02:32:00,35.0,-99.9,30.20,NW,311,7.0,9.0,-999,-99.99,,,-99.99,,2013-03-03 08:32:00,
2013-03-03 02:42:00,34.0,-99.9,30.20,North,-999,-999.0,-999.0,-999,-99.99,,,-99.99,,2013-03-03 08:42:00,
2013-03-03 02:54:00,34.0,-99.9,30.20,North,-999,-999.0,-999.0,-999,-99.99,,,-99.99,,2013-03-03 08:54:00,
2013-03-03 03:02:00,34.0,-99.9,30.19,NW,314,8.0,9.0,-999,-99.99,,,-99.99,,2013-03-03 09:02:00,
2013-03-03 03:12:00,34.0,-99.9,30.19,North,-999,-999.0,-999.0,-999,-99.99,,,-99.99,,2013-03-03 09:12:00,
2013-03-03 03:22:00,34.0,-99.9,30.19,North,-999,-999.0,-999.0,-999,-99.99,,,-99.99,,2013-03-03 09:22:00,
2013-03-03 03:32:00,33.0,-99.9,30.19,NW,324,8.0,10.0,-999,-99.99,,,-99.99,,2013-03-03 09:32:00,
2013-03-03 03:42:00,34.0,-99.9,30.18,NW,316,7.0,10.0,-999,-99.99,,,-99.99,,2013-03-03 09:42:00,
2013-03-03 03:52:00,34.0,-99.9,30.18,NW,320,8.0,10.0,-999,-99.99,,,-99.99,,2013-03-03 09:52:00,
2013-03-03 04:01:00,33.0,-99.9,30.18,NW,315,7.0,9.0,-999,-99.99,,,-99.99,,2013-03-03 10:01:00,
2013-03-03 04:12:00,32.0,-99.9,30.18,NW,308,7.0,8.0,-999,-99.99,,,-99.99,,2013-03-03 10:12:00,
2013-03-03 04:22:00,32.0,-99.9,30.18,North,-999,-999.0,-999.0,-999,-99.99,,,-99.99,,2013-03-03 10:22:00,
2013-03-03 04:32:00,32.0,-99.9,30.18,NW,308,7.0,9.0,-999,-99.99,,,-99.99,,2013-03-03 10:32:00,
2013-03-03 04:42:00,32.0,-99.9,30.19,NW,308,7.0,9.0,-999,-99.99,,,-99.99,,2013-03-03 10:42:00,
2013-03-03 04:52:00,31.0,-99.9,30.19,NW,309,8.0,10.0,-999,-99.99,,,-99.99,,2013-03-03 10:52:00,
2013-03-03 05:02:00,31.0,-99.9,30.19,NW,307,9.0,10.0,-999,-99.99,,,-99.99,,2013-03-03 11:02:00,
2013-03-03 05:11:00,31.0,-99.9,30.20,NW,311,9.0,13.0,-999,-99.99,,,-99.99,,2013-03-03 11:11:00,
2013-03-03 05:22:00,31.0,-99.9,30.20,NW,311,9.0,11.0,-999,-99.99,,,-99.99,,2013-03-03 11:22:00,
2013-03-03 05:32:00,31.0,-99.9,30.21,NW,313,10.0,13.0,-999,-99.99,,,-99.99,,2013-03-03 11:32:00,
2013-03-03 05:42:00,31.0,-99.9,30.21,NW,314,10.0,13.0,-999,-99.99,,,-99.99,,2013-03-03 11:42:00,
2013-03-03 05:53:00,31.0,-99.9,30.21,North,-999,-999.0,-999.0,-999,-99.99,,,-99.99,,2013-03-03 11:53:00,
2013-03-03 06:02:00,31.0,-99.9,30.21,NW,320,8.0,12.0,-999,-99.99,,,-99.99,,2013-03-03 12:02:00,
2013-03-03 06:11:00,31.0,-99.9,30.21,NW,319,9.0,11.0,-999,-99.99,,,-99.99,,2013-03-03 12:11:00,
2013-03-03 06:22:00,30.0,-99.9,30.22,NW,317,8.0,10.0,-999,-99.99,,,-99.99,,2013-03-03 12:22:00,
2013-03-03 06:32:00,31.0,-99.9,30.22,NW,321,8.0,10.0,-999,-99.99,,,-99.99,,2013-03-03 12:32:00,
2013-03-03 06:43:00,30.0,-99.9,30.23,NW,315,7.0,9.0,-999,-99.99,,,-99.99,,2013-03-03 12:43:00,
2013-03-03 06:53:00,31.0,-99.9,30.23,NW,320,10.0,14.0,-999,-99.99,,,-99.99,,2013-03-03 12:53:00,
2013-03-03 07:02:00,31.0,-99.9,30.23,NW,325,12.0,16.0,-999,-99.99,,,-99.99,,2013-03-03 13:02:00,
2013-03-03 07:11:00,31.0,-99.9,30.23,North,-999,-999.0,-999.0,-999,-99.99,,,-99.99,,2013-03-03 13:11:00,
2013-03-03 07:22:00,32.0,-99.9,30.23,North,-999,-999.0,-999.0,-999,-99.99,,,-99.99,,2013-03-03 13:22:00,
2013-03-03 07:32:00,32.0,-99.9,30.23,NNW,339,12.0,16.0,-999,-99.99,,,-99.99,,2013-03-03 13:32:00,
2013-03-03 07:42:00,32.0,-99.9,30.24,NNW,336,12.0,14.0,-999,-99.99,,,-99.99,,2013-03-03 13:42:00,
2013-03-03 07:52:00,33.0,-99.9,30.24,North,-999,-999.0,-999.0,-999,-99.99,,,-99.99,,2013-03-03 13:52:00,
2013-03-03 08:02:00,33.0,-99.9,30.24,NNW,327,11.0,13.0,-999,-99.99,,,-99.99,,2013-03-03 14:02:00,
2013-03-03 08:11:00,34.0,-99.9,30.24,NNW,330,9.0,12.0,-999,-99.99,,,-99.99,,2013-03-03 14:11:00,
2013-03-03 08:22:00,34.0,-99.9,30.25,NNW,328,11.0,14.0,-999,-99.99,,,-99.99,,2013-03-03 14:22:00,
2013-03-03 08:32:00,34.0,-99.9,30.25,NW,324,11.0,15.0,-999,-99.99,,,-99.99,,2013-03-03 14:32:00,
2013-03-03 08:42:00,34.0,-99.9,30.25,NNW,328,11.0,15.0,-999,-99.99,,,-99.99,,2013-03-03 14:42:00,
2013-03-03 08:52:00,35.0,-99.9,30.25,North,-999,-999.0,-999.0,-999,-99.99,,,-99.99,,2013-03-03 14:52:00,
2013-03-03 09:02:00,35.0,-99.9,30.25,NW,321,13.0,17.0,-999,-99.99,,,-99.99,,2013-03-03 15:02:00,
2013-03-03 09:11:00,36.0,-99.9,30.25,NNW,337,9.0,14.0,-999,-99.99,,,-99.99,,2013-03-03 15:11:00,
2013-03-03 09:22:00,37.0,-99.9,30.25,NNW,345,11.0,15.0,-999,-99.99,,,-99.99,,2013-03-03 15:22:00,
2013-03-03 09:33:00,37.0,-99.9,30.25,NNW,330,12.0,16.0,-999,-99.99,,,-99.99,,2013-03-03 15:33:00,
2013-03-03 09:42:00,38.0,-99.9,30.24,North,-999,-999.0,-999.0,-999,-99.99,,,-99.99,,2013-03-03 15:42:00,
2013-03-03 09:52:00,38.0,-99.9,30.24,North,-999,-999.0,-999.0,-999,-99.99,,,-99.99,,2013-03-03 15:52:00,
2013-03-03 10:02:00,38.0,-99.9,30.24,NW,324,15.0,17.0,-999,-99.99,,,-99.99,,2013-03-03 16:02:00,
2013-03-03 10:12:00,38.0,-99.9,30.24,North,-999,-999.0,-999.0,-999,-99.99,,,-99.99,,2013-03-03 16:12:00,
2013-03-03 10:22:00,39.0,-99.9,30.24,NNW,332,12.0,18.0,-999,-99.99,,,-99.99,,2013-03-03 16:22:00,
2013-03-03 10:32:00,39.0,-99.9,30.24,NW,321,10.0,14.0,-999,-99.99,,,-99.99,,2013-03-03 16:32:00,
2013-03-03 10:42:00,40.0,-99.9,30.23,NNW,333,10.0,17.0,-999,-99.99,,,-99.99,,2013-03-03 16:42:00,
2013-03-03 10:52:00,40.0,-99.9,30.23,NW,326,10.0,14.0,-999,-99.99,,,-99.99,,2013-03-03 16:52:00,
2013-03-03 11:01:00,41.0,-99.9,30.23,NW,312,11.0,17.0,-999,-99.99,,,-99.99,,2013-03-03 17:01:00,
2013-03-03 11:12:00,41.0,-99.9,30.23,NNW,345,10.0,15.0,-999,-99.99,,,-99.99,,2013-03-03 17:12:00,
2013-03-03 11:22:00,42.0,-99.9,30.23,NNW,337,10.0,13.0,-999,-99.99,,,-99.99,,2013-03-03 17:22:00,
2013-03-03 11:32:00,42.0,-99.9,30.22,NNW,334,12.0,16.0,-999,-99.99,,,-99.99,,2013-03-03 17:32:00,
2013-03-03 11:42:00,43.0,-99.9,30.22,North,-999,-999.0,-999.0,-999,-99.99,,,-99.99,,2013-03-03 17:42:00,
2013-03-03 11:52:00,44.0,-99.9,30.21,North,-999,-999.0,-999.0,-999,-99.99,,,-99.99,,2013-03-03 17:52:00,
2013-03-03 12:02:00,44.0,-99.9,30.21,NNW,332,11.0,14.0,-999,-99.99,,,-99.99,,2013-03-03 18:02:00,
2013-03-03 12:11:00,44.0,-99.9,30.20,North,-999,-999.0,-999.0,-999,-99.99,,,-99.99,,2013-03-03 18:11:00,
2013-03-03 12:22:00,45.0,-99.9,30.20,NNW,347,9.0,16.0,-999,-99.99,,,-99.99,,2013-03-03 18:22:00,
2013-03-03 12:32:00,45.0,-99.9,30.20,North,352,11.0,15.0,-999,-99.99,,,-99.99,,2013-03-03 18:32:00,
2013-03-03 12:42:00,46.0,-99.9,30.19,NNW,337,9.0,12.0,-999,-99.99,,,-99.99,,2013-03-03 18:42:00,
2013-03-03 12:53:00,46.0,-99.9,30.18,North,3,9.0,12.0,-999,-99.99,,,-99.99,,2013-03-03 18:53:00,
2013-03-03 13:02:00,45.0,-99.9,30.18,NNE,15,7.0,11.0,-999,-99.99,,,-99.99,,2013-03-03 19:02:00,
2013-03-03 13:11:00,46.0,-99.9,30.17,North,6,9.0,13.0,-999,-99.99,,,-99.99,,2013-03-03 19:11:00,
2013-03-03 13:22:00,46.0,-99.9,30.17,NNE,19,9.0,12.0,-999,-99.99,,,-99.99,,2013-03-03 19:22:00,
2013-03-03 13:32:00,47.0,-99.9,30.17,NNW,340,7.0,11.0,-999,-99.99,,,-99.99,,2013-03-03 19:32:00,
2013-03-03 13:42:00,47.0,-99.9,30.16,North,11,5.0,8.0,-999,-99.99,,,-99.99,,2013-03-03 19:42:00,
2013-03-03 13:52:00,48.0,-99.9,30.15,NNE,15,3.0,6.0,-999,-99.99,,,-99.99,,2013-03-03 19:52:00,
2013-03-03 14:02:00,48.0,-99.9,30.15,North,2,5.0,7.0,-999,-99.99,,,-99.99,,2013-03-03 20:02:00,
2013-03-03 14:12:00,49.0,-99.9,30.15,North,11,5.0,7.0,-999,-99.99,,,-99.99,,2013-03-03 20:12:00,
2013-03-03 14:22:00,48.0,-99.9,30.14,NNE,13,8.0,10.0,-999,-99.99,,,-99.99,,2013-03-03 20:22:00,
2013-03-03 14:32:00,49.0,-99.9,30.14,NNE,24,5.0,9.0,-999,-99.99,,,-99.99,,2013-03-03 20:32:00,
2013-03-03 14:43:00,49.0,-99.9,30.14,North,10,8.0,10.0,-999,-99.99,,,-99.99,,2013-03-03 20:43:00,
2013-03-03 14:53:00,50.0,-99.9,30.14,North,-999,-999.0,-999.0,-999,-99.99,,,-99.99,,2013-03-03 20:53:00,
2013-03-03 15:02:00,49.0,-99.9,30.14,SSE,159,5.0,6.0,-999,-99.99,,,-99.99,,2013-03-03 21:02:00,
2013-03-03 15:12:00,52.0,-99.9,30.14,SW,219,8.0,12.0,-999,-99.99,,,-99.99,,2013-03-03 21:12:00,
2013-03-03 15:22:00,51.0,-99.9,30.14,North,-999,-999.0,-999.0,-999,-99.99,,,-99.99,,2013-03-03 21:22:00,
2013-03-03 15:32:00,50.0,-99.9,30.14,WSW,242,11.0,18.0,-999,-99.99,,,-99.99,,2013-03-03 21:32:00,
2013-03-03 15:42:00,51.0,-99.9,30.14,SW,232,10.0,15.0,-999,-99.99,,,-99.99,,2013-03-03 21:42:00,
2013-03-03 15:52:00,51.0,-99.9,30.14,WSW,242,12.0,18.0,-999,-99.99,,,-99.99,,2013-03-03 21:52:00,
2013-03-03 16:02:00,50.0,-99.9,30.14,WSW,240,11.0,18.0,-999,-99.99,,,-99.99,,2013-03-03 22:02:00,
2013-03-03 16:11:00,51.0,-99.9,30.14,WSW,251,11.0,14.0,-999,-99.99,,,-99.99,,2013-03-03 22:11:00,
2013-03-03 16:22:00,51.0,-99.9,30.14,North,-999,-999.0,-999.0,-999,-99.99,,,-99.99,,2013-03-03 22:22:00,
2013-03-03 16:32:00,51.0,-99.9,30.14,WSW,245,11.0,15.0,-999,-99.99,,,-99.99,,2013-03-03 22:32:00,
2013-03-03 16:42:00,50.0,-99.9,30.15,WSW,246,12.0,18.0,-999,-99.99,,,-99.99,,2013-03-03 22:42:00,
2013-03-03 16:53:00,50.0,-99.9,30.15,WSW,247,13.0,20.0,-999,-99.99,,,-99.99,,2013-03-03 22:53:00,
2013-03-03 17:02:00,50.0,-99.9,30.15,WSW,245,14.0,20.0,-999,-99.99,,,-99.99,,2013-03-03 23:02:00,
2013-03-03 17:11:00,50.0,-99.9,30.15,WSW,242,11.0,17.0,-999,-99.99,,,-99.99,,2013-03-03 23:11:00,
2013-03-03 17:22:00,50.0,-99.9,30.15,WSW,250,11.0,16.0,-999,-99.99,,,-99.99,,2013-03-03 23:22:00,
2013-03-03 17:32:00,50.0,-99.9,30.15,WSW,237,11.0,16.0,-999,-99.99,,,-99.99,,2013-03-03 23:32:00,
2013-03-03 17:42:00,49.0,-99.9,30.15,WSW,246,10.0,17.0,-999,-99.99,,,-99.99,,2013-03-03 23:42:00,
2013-03-03 17:52:00,50.0,-99.9,30.15,WSW,242,10.0,15.0,-999,-99.99,,,-99.99,,2013-03-03 23:52:00,
2013-03-03 18:02:00,50.0,-99.9,30.15,WSW,244,11.0,14.0,-999,-99.99,,,-99.99,,2013-03-04 00:02:00,
2013-03-03 18:11:00,49.0,-99.9,30.15,WSW,240,10.0,15.0,-999,-99.99,,,-99.99,,2013-03-04 00:11:00,
2013-03-03 18:22:00,50.0,-99.9,30.15,North,-999,-999.0,-999.0,-999,-99.99,,,-99.99,,2013-03-04 00:22:00,
2013-03-03 18:32:00,49.0,-99.9,30.15,WSW,242,8.0,13.0,-999,-99.99,,,-99.99,,2013-03-04 00:32:00,
2013-03-03 18:42:00,50.0,-99.9,30.15,WSW,252,8.0,11.0,-999,-99.99,,,-99.99,,2013-03-04 00:42:00,
2013-03-03 18:52:00,50.0,-99.9,30.15,WSW,246,10.0,15.0,-999,-99.99,,,-99.99,,2013-03-04 00:52:00,
2013-03-03 19:02:00,50.0,-99.9,30.16,WSW,239,10.0,14.0,-999,-99.99,,,-99.99,,2013-03-04 01:02:00,
2013-03-03 19:12:00,50.0,-99.9,30.16,North,-999,-999.0,-999.0,-999,-99.99,,,-99.99,,2013-03-04 01:12:00,
2013-03-03 19:22:00,50.0,-99.9,30.16,WSW,249,8.0,12.0,-999,-99.99,,,-99.99,,2013-03-04 01:22:00,
2013-03-03 19:32:00,50.0,-99.9,30.16,West,267,10.0,14.0,-999,-99.99,,,-99.99,,2013-03-04 01:32:00,
2013-03-03 19:42:00,50.0,-99.9,30.16,West,275,7.0,10.0,-999,-99.99,,,-99.99,,2013-03-04 01:42:00,
2013-03-03 19:52:00,50.0,-99.9,30.17,West,263,9.0,12.0,-999,-99.99,,,-99.99,,2013-03-04 01:52:00,
2013-03-03 20:01:00,51.0,-99.9,30.17,West,272,7.0,11.0,-999,-99.99,,,-99.99,,2013-03-04 02:01:00,
2013-03-03 20:12:00,51.0,-99.9,30.17,West,265,10.0,13.0,-999,-99.99,,,-99.99,,2013-03-04 02:12:00,
2013-03-03 20:22:00,50.0,-99.9,30.17,North,-999,-999.0,-999.0,-999,-99.99,,,-99.99,,2013-03-04 02:22:00,
2013-03-03 20:32:00,50.0,-99.9,30.17,West,278,6.0,8.0,-999,-99.99,,,-99.99,,2013-03-04 02:32:00,
2013-03-03 20:42:00,49.0,-99.9,30.17,West,280,6.0,7.0,-999,-99.99,,,-99.99,,2013-03-04 02:42:00,
2013-03-03 20:53:00,49.0,-99.9,30.17,North,-999,-999.0,-999.0,-999,-99.99,,,-99.99,,2013-03-04 02:53:00,
2013-03-03 21:02:00,49.0,-99.9,30.17,West,278,5.0,8.0,-999,-99.99,,,-99.99,,2013-03-04 03:02:00,
2013-03-03 21:11:00,49.0,-99.9,30.18,WNW,282,7.0,9.0,-999,-99.99,,,-99.99,,2013-03-04 03:11:00,
2013-03-03 21:22:00,48.0,-99.9,30.18,North,-999,-999.0,-999.0,-999,-99.99,,,-99.99,,2013-03-04 03:22:00,
2013-03-03 21:32:00,48.0,-99.9,30.18,WNW,291,6.0,7.0,-999,-99.99,,,-99.99,,2013-03-04 03:32:00,
2013-03-03 21:42:00,48.0,-99.9,30.18,WNW,287,6.0,7.0,-999,-99.99,,,-99.99,,2013-03-04 03:42:00,
2013-03-03 21:53:00,47.0,-99.9,30.19,North,-999,-999.0,-999.0,-999,-99.99,,,-99.99,,2013-03-04 03:53:00,
2013-03-03 22:02:00,47.0,-99.9,30.19,WNW,292,1.0,2.0,-999,-99.99,,,-99.99,,2013-03-04 04:02:00,
2013-03-03 22:11:00,46.0,-99.9,30.18,NW,306,1.0,1.0,-999,-99.99,,,-99.99,,2013-03-04 04:11:00,
2013-03-03 22:22:00,46.0,-99.9,30.18,North,-999,-999.0,-999.0,-999,-99.99,,,-99.99,,2013-03-04 04:22:00,
2013-03-03 22:32:00,46.0,-99.9,30.19,NNW,329,2.0,3.0,-999,-99.99,,,-99.99,,2013-03-04 04:32:00,
2013-03-03 22:42:00,46.0,-99.9,30.19,NW,324,2.0,2.0,-999,-99.99,,,-99.99,,2013-03-04 04:42:00,
2013-03-03 22:52:00,45.0,-99.9,-100.00,North,-999,-999.0,-999.0,-999,-99.99,,,-99.99,,2013-03-04 04:52:00,
2013-03-03 23:01:00,45.0,-99.9,30.17,NW,320,-999.0,-999.0,-999,-99.99,,,-99.99,,2013-03-04 05:01:00,
2013-03-03 23:11:00,46.0,-99.9,30.16,NNE,18,1.0,2.0,-999,-99.99,,,-99.99,,2013-03-04 05:11:00,
2013-03-03 23:22:00,47.0,-99.9,30.16,North,-999,-999.0,-999.0,-999,-99.99,,,-99.99,,2013-03-04 05:22:00,
2013-03-03 23:32:00,46.0,-99.9,30.16,NNE,12,2.0,3.0,-999,-99.99,,,-99.99,,2013-03-04 05:32:00,
2013-03-03 23:43:00,46.0,-99.9,30.16,North,7,1.0,1.0,-999,-99.99,,,-99.99,,2013-03-04 05:43:00,
2013-03-03 23:52:00,46.0,-99.9,30.16,North,-999,-999.0,-999.0,-999,-99.99,,,-99.99,,2013-03-04 05:52:00,